This demonstration page uses our WeatherBlox Daily Observations layout. Learn more.

Left ArrowRight Arrow

Hourly Observations for December 29, 2019

Temp ( °F °C ) Dew Point ( °F °C ) Humidity (%) Winds ( mph kmh ) Pressure ( in mb ) Visibility ( mi km ) Precip ( " mm )
12:51 am 00:51 Clear 31 -0.6 28 -2.2 89 89 NNW 8 13 30.04 1017 10 16 N/A
1:51 am 01:51 Clear 31 -0.6 28 -2.2 89 89 NNW 6 9 30.05 1018 10 16 N/A
2:51 am 02:51 Clear 30 -1.1 28 -2.2 92 92 WSW 6 9 30.07 1018 10 16 N/A
3:51 am 03:51 Clear 28 -2.2 26 -3.3 92 92 N N/A 30.09 1019 10 16 N/A
4:51 am 04:51 Clear 26 -3.3 24 -4.4 92 92 N N/A 30.08 1019 10 16 N/A
5:10 am 05:10 Partly Cloudy with Mist and Fog 27 -2.8 26 -3.3 96 96 SSW 5 7 30.23 1024 4 6 N/A
5:12 am 05:12 Mostly Cloudy with Mist and Fog 27 -2.8 26 -3.3 96 96 SSW 5 7 30.23 1024 2 2 N/A
5:20 am 05:20 Mostly Cloudy with Freezing Fog 27 -2.8 27 -2.8 100 100 N N/A 30.23 1024 1 1 N/A
5:51 am 05:51 Mostly Cloudy with Freezing Fog 26 -3.3 25 -3.9 96 96 E 3 6 30.12 1020 0 0 N/A
6:12 am 06:12 Mostly Cloudy with Mist and Fog 26 -3.3 25 -3.9 96 96 N N/A 30.25 1024 1 2 N/A
6:26 am 06:26 Mostly Clear with Mist and Fog 26 -3.3 24 -4.4 92 92 N N/A 30.25 1024 2 2 N/A
6:35 am 06:35 Mostly Clear with Mist and Fog 25 -3.9 23 -5 92 92 E 3 6 30.27 1025 3 4 N/A
6:49 am 06:49 Mostly Clear with Mist and Fog 25 -4 23 -5 93 93 S 3 6 30.27 1025 1 2 N/A
6:51 am 06:51 Mostly Clear with Mist and Fog 25 -3.9 23 -5 92 92 VRB 3 6 30.14 1021 2 2 N/A
6:56 am 06:56 Mostly Cloudy with Mist and Fog 25 -3.9 23 -5 92 92 E 5 7 30.27 1025 1 1 N/A
7:51 am 07:51 Mostly Cloudy with Freezing Fog 25 -3.9 24 -4.4 96 96 ENE 5 7 30.17 1022 0 0 N/A
8:14 am 08:14 Partly Cloudy with Mist and Fog 27 -2.8 26 -3.3 96 96 ENE 3 6 30.29 1026 1 2 N/A
8:17 am 08:17 Partly Cloudy with Mist and Fog 27 -2.8 26 -3.3 96 96 E 3 6 30.29 1026 3 5 N/A
8:32 am 08:32 Mostly Cloudy with Mist and Fog 28 -2.2 27 -2.8 96 96 ESE 5 7 30.29 1026 1 1 N/A
8:51 am 08:51 Mostly Cloudy with Freezing Fog 27 -2.8 27 -2.8 100 100 ESE 5 7 30.19 1023 N/A N/A
9:36 am 09:36 Mostly Cloudy with Mist and Fog 30 -1.1 30 -1.1 100 100 SE 5 7 30.30 1026 3 4 N/A
9:43 am 09:43 Mostly Cloudy 31 -0.6 30 -1.1 96 96 SSE 5 7 30.31 1026 10 16 N/A
9:51 am 09:51 Mostly Cloudy 30 -1.1 30 -1.1 100 100 SSE 3 6 30.22 1023 7 11 N/A
10:02 am 10:02 Partly Cloudy 30 -1.1 30 -1.1 100 100 S 3 6 30.31 1027 10 16 N/A
10:51 am 10:51 Sunny 33 0.6 28 -2.2 82 82 VRB 3 6 30.22 1024 10 16 N/A
11:51 am 11:51 Sunny 40 4.4 23 -5 51 51 W 10 17 30.17 1022 10 16 N/A
12:51 pm 12:51 Sunny 43 6.1 23 -5 45 45 NW 13 20 30.12 1020 10 16 N/A
1:51 pm 13:51 Sunny 44 6.7 22 -5.6 41 41 WNW 14 22 30.10 1019 10 16 N/A
2:51 pm 14:51 Sunny 44 6.7 21 -6.1 40 40 WNW 14 22 30.10 1019 10 16 N/A
3:51 pm 15:51 Sunny 45 7.2 18 -7.8 34 34 NNW 14 22 30.09 1019 10 16 N/A
4:51 pm 16:51 Sunny 43 6.1 19 -7.2 38 38 NW 7 11 30.11 1020 10 16 N/A
5:51 pm 17:51 Clear 38 3.3 24 -4.4 57 57 W 6 9 30.13 1020 10 16 N/A
6:51 pm 18:51 Clear 36 2.2 24 -4.4 62 62 WSW 6 9 30.14 1021 10 16 N/A
7:51 pm 19:51 Clear 33 0.6 25 -3.9 72 72 N 5 7 30.15 1021 10 16 N/A
8:51 pm 20:51 Clear 31 -0.6 26 -3.3 82 82 ENE 3 6 30.16 1021 10 16 N/A
9:51 pm 21:51 Clear 31 -0.6 26 -3.3 82 82 N N/A 30.17 1022 10 16 N/A
10:51 pm 22:51 Clear 31 -0.6 25 -3.9 79 79 E 6 9 30.15 1021 10 16 N/A
11:51 pm 23:51 Clear 29 -1.7 25 -3.9 85 85 E 5 7 30.11 1020 10 16 N/A

Powered by AerisWeather